sat.trackr.live / text

‹ back to catalog

STARLINK-34373

NORAD 64944 · 2025-158N

PAYLOAD ACTIVE UNKNOWN

§ Identity

Operator
Country
US
Launch date
2025-07-27
Launch site
AFWTR
Launch vehicle
Mass (kg)
RCS (m²)

Purposes: comms

External: N2YO · Heavens-Above · Gunter

§ Orbital elements

Epoch: 2026-05-25T01:17:30.726240Z

Period
95.64 min
Inclination
97.4522°
Eccentricity
0.0002041
Mean motion
15.05669225 rev/d
Perigee alt
548.0 km
Apogee alt
550.9 km
Semi-major
6,927.6 km
B*
2.9582e-4
RAAN
8.9377°
Arg perigee
101.9935°
Mean anomaly
258.1521°
Rev number
4,684

§ Raw data

STARLINK-343731 64944U 25158N   26145.05382785  .00004214  00000+0  29582-3 0  99932 64944  97.4522   8.9377 0002041 101.9935 258.1521 15.05669225 46844

JSON: /api/v1/satellites/64944 · /tle

For live sub-satellite position, see the globe view (requires WebGL).

§ Visibility from observer

Set your observer location to see the next 7 days of passes ≥ 10°. The values pass through the URL so the page stays shareable.

No JS? Fill the form by hand. The geolocation button needs JavaScript.